< < Back
Terminal Aerodrome Forecast


Current Version              Previous Versions:   1  2  3  4  5  6  7  8  9  

Terminal Aerodrome Forecast

609
FTUS42 KCHS 241700
TAFSAV
TAF
KSAV 241732Z 2418/2518 11012G18KT P6SM FEW040
     FM242300 13007KT P6SM FEW040
     FM250700 17007KT P6SM SCT015 BKN035
     FM251400 22012G18KT P6SM FEW035=

Latest METAR

015
SAUS80 KWBC 250900
MTRSAV
METAR KSAV 250853Z AUTO 21004KT 10SM FEW060 OVC080 20/18 A2993 RMK AO2
SLP134 T02000178 55004 TSNO


USA.gov is the U.S. government's official web portal to all federal, state and local government web resources and services.